Location: Unspecified
(0.0000°N, 0.0000°E)
Time: 09:40:37
(UTC+00:00)

Kosmos-1506 - Pass Details

Date: 14 June 2023
Orbit: 946 x 1007 km, 82.9° (Epoch: 28 September)

Event Time Altitude Azimuth Distance (km) Brightness Sun altitude
Rises 19:10:45 0° 350° (N) 3,613 9.0 -16.1°
Reaches altitude 10° 19:13:16 10° 347° (NNW) 2,665 8.3 -16.7°
Maximum altitude 19:19:15 62° 267° (W) 1,059 5.9 -18.1°
Drops below altitude 10° 19:25:15 10° 187° (S) 2,667 7.6 -19.4°
Sets 19:27:46 0° 184° (S) 3,616 8.3 -20.0°
